Torna al catalogo

CZ-6A DEB

AttivoSSO
NORAD 54584·DEBRIS·🇨🇳 China

Lanciato Nov 11, 2022 da Taiyuan Satellite Launch Center

Loading…

Prossimi Passaggi (prossime 24 ore)

TLE

AggiornatoSource: Space-Track

Epoca: Sep 14, 2026, 09:19 UTC

1 54584U 22151ML  26257.38864562  .00000703  00000-0  47114-3 0  9991
2 54584  98.9082 228.4321 0123510 185.1082 174.8832 14.00419532194964

Traccia CZ-6A DEB in tempo reale con AllMySat

Download on the App Store